FW5647 Weather Reports


time (UTC)temp
F
wind
direction
speed
knots
gust
knots
rain 1hr
in
rain 24hr
in
rain mn
in
humidity
%
barometer
mb
20240614121530 66 0 0.0 2.6 0.00 0.04 0.00 92 1014.3
20240614120021 64 0 0.0 0.0 0.00 0.04 0.00 95 1014.2
20240614114520 63 0 0.0 0.0 0.00 0.04 0.00 95 1013.9
20240614113021 62 0 0.0 0.0 0.00 0.04 0.00 95 1013.9
20240614111540 61 0 0.0 0.0 0.00 0.04 0.00 95 1013.7
20240614110033 61 0 0.0 0.0 0.00 0.04 0.00 95 1013.5
20240614104524 61 0 0.0 0.0 0.00 0.04 0.00 94 1013.5
20240614103026 61 0 0.0 0.0 0.00 0.04 0.00 94 1013.6
20240614101532 61 0 0.0 0.0 0.00 0.04 0.00 94 1013.3
20240614100025 62 0 0.0 0.0 0.00 0.04 0.00 94 1013.0
20240614094520 62 0 0.0 0.0 0.00 0.04 0.00 94 1012.8
20240614093019 63 0 0.0 0.0 0.00 0.04 0.00 94 1012.7
20240614091528 64 0 0.0 0.0 0.00 0.04 0.00 93 1012.5
20240614090022 64 0 0.0 0.0 0.00 0.04 0.00 94 1012.3
20240614084535 64 0 0.0 0.0 0.00 0.04 0.00 94 1012.0
20240614083019 64 0 0.0 0.0 0.00 0.04 0.00 94 1012.0
20240614081520 64 0 0.0 0.9 0.00 0.04 0.00 93 1012.1
20240614080016 64 0 0.0 0.9 0.00 0.04 0.00 93 1011.9
20240614074525 64 0 0.0 0.9 0.00 0.04 0.00 92 1011.9
20240614073019 64 0 0.0 0.0 0.00 0.04 0.00 92 1011.5
20240614071520 65 0 0.0 0.9 0.00 0.04 0.00 91 1011.7
20240614070022 65 310 0.0 2.6 0.00 0.04 0.00 91 1011.5
20240614064522 66 244 0.0 4.3 0.00 0.04 0.00 91 1011.6
20240614063019 66 262 0.0 1.7 0.00 0.04 0.00 91 1011.6
20240614061535 66 259 0.0 3.5 0.00 0.04 0.00 90 1011.7
20240614060037 66 251 1.7 4.3 0.00 0.04 0.00 90 1011.8
20240614054521 66 231 0.9 2.6 0.00 0.04 0.00 90 1011.9
20240614053020 66 259 0.9 7.0 0.00 0.04 0.00 91 1011.9
20240614051525 66 0 0.0 0.9 0.00 0.04 0.00 90 1012.0
20240614050024 66 270 0.0 2.6 0.00 0.04 0.00 90 1011.9
20240614044520 66 252 0.0 0.9 0.00 0.04 0.00 89 1011.7
20240614043021 66 0 0.0 1.7 0.00 0.04 0.00 89 1011.6
20240614041524 66 233 0.0 1.7 0.00 0.04 0.00 90 1011.7
20240614040022 66 0 0.0 1.7 0.00 0.04 0.00 88 1011.8
20240614034520 66 0 0.0 0.0 0.00 0.04 0.04 87 1011.5
20240614033024 67 0 0.0 0.0 0.00 0.04 0.04 85 1011.2
20240614031516 68 246 0.0 1.7 0.00 0.04 0.04 83 1011.2
20240614030021 69 291 0.9 4.3 0.00 0.04 0.04 82 1010.8
20240614024519 70 0 0.9 3.5 0.00 0.04 0.04 80 1010.6
20240614023018 71 255 0.9 2.6 0.00 0.04 0.04 79 1010.6
20240614021518 71 238 1.7 3.5 0.00 0.04 0.04 77 1010.6
20240614020020 72 251 1.7 4.3 0.00 0.04 0.04 76 1010.6
20240614014518 72 252 1.7 5.2 0.00 0.04 0.04 75 1010.7
20240614013032 73 236 2.6 7.0 0.00 0.04 0.04 74 1011.0
20240614011532 73 262 2.6 8.7 0.00 0.04 0.04 74 1011.1
20240614010017 74 353 2.6 13.0 0.00 0.04 0.04 73 1011.3
20240614004518 74 251 4.3 10.4 0.00 0.04 0.04 73 1011.2
20240614003025 74 255 3.5 9.6 0.00 0.04 0.04 73 1011.3
20240614001527 74 203 2.6 13.0 0.00 0.04 0.04 73 1011.1
20240614000021 74 250 3.5 9.6 0.00 0.04 0.04 74 1011.2
20240613234613 75 262 4.3 12.2 0.00 0.04 0.04 74 1011.3
20240613233018 75 273 4.3 12.2 0.00 0.04 0.04 72 1011.0
20240613231521 76 284 5.2 14.8 0.00 0.04 0.04 71 1011.0
20240613230031 76 266 4.3 8.7 0.00 0.04 0.04 71 1010.6
20240613224547 76 46 2.6 7.0 0.00 0.04 0.04 71 1010.6
20240613223018 78 299 3.5 11.3 0.00 0.04 0.04 67 1010.7
20240613221521 80 248 4.3 18.2 0.00 0.04 0.04 61 1010.8
20240613220043 82 236 2.6 7.8 0.00 0.04 0.04 52 1010.7
20240613214520 83 268 3.5 9.6 0.00 0.04 0.04 52 1010.7
20240613213024 84 271 4.3 13.0 0.00 0.04 0.04 50 1010.3
20240613211518 85 259 2.6 13.9 0.00 0.04 0.04 49 1009.7
20240613210017 86 219 4.3 16.5 0.00 0.04 0.04 47 1009.7
20240613204515 87 217 7.0 15.6 0.00 0.04 0.04 45 1009.6
20240613203019 87 221 5.2 14.8 0.00 0.04 0.04 46 1009.9
20240613201533 86 283 6.1 16.5 0.00 0.04 0.04 46 1010.0
20240613200019 88 221 4.3 11.3 0.00 0.04 0.04 47 1010.1
20240613194608 87 257 7.8 16.5 0.00 0.04 0.04 47 1010.1
20240613193037 87 288 8.7 17.4 0.00 0.04 0.04 45 1010.3
20240613191519 86 245 7.0 20.0 0.00 0.04 0.04 47 1010.5
20240613190021 86 231 8.7 19.1 0.00 0.04 0.04 44 1010.6
20240613184532 86 251 7.8 15.6 0.00 0.04 0.04 46 1010.9
20240613183029 86 276 8.7 21.7 0.00 0.04 0.04 46 1010.8
20240613181526 86 272 3.5 11.3 0.00 0.04 0.04 53 1011.0
20240613180019 85 244 5.2 17.4 0.00 0.04 0.04 54 1011.1
20240613174522 85 305 7.8 13.9 0.00 0.04 0.04 52 1011.2
20240613173022 83 279 6.1 15.6 0.00 0.04 0.04 55 1011.2
20240613171539 85 156 6.1 13.9 0.00 0.04 0.04 53 1011.2
20240613170027 84 117 5.2 15.6 0.00 0.04 0.04 57 1011.2
20240613164526 84 199 4.3 10.4 0.00 0.04 0.04 59 1011.0
20240613163025 82 311 3.5 11.3 0.00 0.04 0.04 66 1011.0
20240613161523 82 233 4.3 10.4 0.00 0.04 0.04 64 1010.9
20240613160021 81 217 2.6 8.7 0.00 0.04 0.04 67 1011.0
20240613154532 81 253 3.5 7.8 0.00 0.04 0.04 68 1011.2
20240613153023 80 292 2.6 7.8 0.00 0.04 0.04 71 1011.0
20240613151522 80 112 2.6 6.1 0.00 0.04 0.04 69 1011.2
20240613150021 78 224 2.6 6.1 0.00 0.04 0.04 73 1011.5
20240613144531 77 178 1.7 8.7 0.00 0.04 0.04 74 1011.8
20240613143020 76 266 2.6 10.4 0.00 0.04 0.04 76 1012.3
20240613141531 77 105 1.7 3.5 0.00 0.04 0.04 78 1012.4
20240613140019 73 129 1.7 3.5 0.00 0.04 0.04 82 1012.5
20240613134533 69 90 0.9 2.6 0.00 0.04 0.04 91 1012.5
20240613133016 67 104 0.9 2.6 0.01 0.04 0.04 92 1012.8
20240613131522 65 100 0.9 1.7 0.04 0.04 0.04 91 1013.1
20240613130027 65 18 1.7 4.3 0.04 0.04 0.04 89 1013.2
20240613124522 66 118 0.0 1.7 0.04 0.04 0.04 86 1013.4
20240613123025 68 315 1.7 10.4 0.03 0.03 0.03 80 1013.4